[[{"header":{"parameterUnit":"m.s-1","parameterCategory":1,"la1":30.2991,"la2":30.254,"lo1":-89.0895,"lo2":-89.0444,"dy":0.0017,"dx":0.0017,"nx":28,"ny":28,"refTime":"2025-06-11T09:00:00:Z","depth":0,"parameterNumber":2,"parameterNumberName":"U-component_of_WINDS"},"data":[0,0,0,0,0,0,0,0,0,0,0,0,0,0,0,0,0,0,0,0,0,0,0,0,0,0,0,0,0,0,0,0,0,0,0,0,0,0,0,0,0,0,0,0,0,0,0,0,0,0,0,0,0,0,0,0,0,0,6.6301,6.6299,0,6.6112,6.611,6.6107,6.5797,6.5791,6.5785,6.578,6.5592,6.5592,6.5593,0,0,0,0,0,0,0,0,0,0,0,0,0,6.6395,6.6395,6.6301,6.6298,6.6296,6.6112,6.6109,6.6107,6.5798,6.5791,6.5784,6.5777,6.5592,6.5592,6.5593,0,0,0,0,0,0,0,0,0,0,0,0,0,6.6296,6.6395,6.6301,6.612,6.6101,6.6113,6.6109,6.6106,6.5799,6.5791,6.5782,6.5774,6.5592,6.5592,6.5593,6.5768,0,0,6.5594,6.5594,0,0,0,0,0,0,0,0,6.6302,6.6293,6.6149,6.6132,6.6112,6.5969,6.6073,6.5993,6.5802,6.5914,6.578,6.577,6.5725,6.5714,6.5697,6.5759,6.5751,6.5594,6.5595,6.5595,6.5595,0,0,0,0,0,0,0,6.6309,6.6299,6.6226,6.6147,6.6124,6.6048,6.6024,6.6057,6.587,6.5904,6.5881,6.5862,6.5713,6.5698,6.5691,6.5748,6.5594,6.5595,6.5595,6.5595,6.5938,6.5946,0,0,0,0,0,0,6.6342,6.6307,6.6232,6.622,6.6187,6.6053,6.6027,6.6024,6.5869,6.5837,6.587,6.5849,6.5701,6.569,6.5683,6.5873,6.5595,6.5595,6.5596,6.5929,6.594,6.5949,0,0,0,0,0,0,6.6346,6.6339,6.6239,6.6257,6.6239,6.6061,6.606,6.6024,6.6008,6.5843,6.5809,6.5888,6.5694,6.5682,6.5747,6.5863,6.5596,6.5596,6.5919,6.5932,6.5944,6.626,0,0,0,0,0,0,6.635,6.6342,6.6406,6.6261,6.6239,6.6308,6.6067,6.6027,6.6009,6.598,6.5851,6.5822,6.5686,6.5748,6.5748,6.5859,6.5596,6.5907,6.5925,6.594,6.6239,6.6282,6.632,0,0,0,0,0,6.6354,6.6505,6.6411,6.6404,6.6316,6.6315,6.6303,6.6142,6.602,6.6083,6.5976,6.5826,6.5851,6.5758,6.5754,6.5868,6.5899,6.592,6.5939,6.622,6.6274,6.6319,0,0,0,0,0,0,6.6672,6.6483,6.6377,6.6485,6.6418,6.6263,6.6338,6.6205,6.6173,6.6147,6.595,6.5923,6.6013,6.5946,6.5846,6.6026,6.5851,6.5872,6.6066,6.6116,6.6156,6.617,6.5597,0,0,0,0,0,6.6754,6.6768,6.6603,6.6714,6.6686,6.6519,6.6513,6.6394,6.6317,6.6288,6.6186,6.6119,6.611,6.6109,6.6093,6.6227,6.6193,6.6303,6.6344,6.6378,6.6398,6.6459,6.6505,6.6014,6.6014,6.6014,0,0,6.6925,6.6823,6.6845,6.6775,6.6709,6.6729,6.6497,6.6528,6.654,6.6293,6.6347,6.627,6.6181,6.6281,6.632,6.6228,6.6525,6.6403,6.6432,6.6432,6.6484,6.6531,6.6572,6.6028,6.6025,6.6023,0,0,6.7246,6.7171,6.7254,6.7191,6.7094,6.698,6.7001,6.6865,6.6803,6.6853,6.6667,6.6678,6.667,6.6612,6.6583,6.6877,6.6736,6.6877,6.709,6.7152,6.7191,6.7224,6.7326,6.7366,6.6897,6.6898,6.6899,0,6.7471,6.7491,6.7314,6.7355,6.7329,6.7103,6.7184,6.7133,6.7037,6.7024,6.6922,6.6902,6.6827,6.6907,6.6979,6.6963,6.6978,6.6891,6.72,6.7231,6.7259,6.7354,6.7394,6.6916,6.6914,6.6912,6.691,0,6.7772,6.7789,6.7867,6.7776,6.7758,6.7821,6.7652,6.7655,6.7538,6.7435,6.7488,6.7388,6.7346,6.7356,6.7243,6.742,6.7365,6.7235,6.7056,6.7327,6.7413,6.7448,6.6941,6.6935,6.6929,6.6925,0,0,6.829,6.8096,6.8128,6.8082,6.7955,6.7965,6.8015,6.7971,6.7977,6.7917,6.7953,6.7948,6.7824,6.779,6.7668,6.7723,6.7958,6.7584,6.7578,6.7655,6.8142,6.8241,6.8286,6.7863,6.787,6.7875,6.8149,0,6.8583,6.8657,6.8497,6.861,6.8621,6.8405,6.8448,6.8375,6.828,6.8276,6.817,6.8169,6.8007,6.7985,6.8029,6.7921,6.8053,6.7898,6.7894,6.7896,6.7922,6.8331,6.8436,6.87,6.8181,6.8187,6.8191,0,6.8936,6.889,6.9005,6.8866,6.8865,6.8907,6.8851,6.885,6.8762,6.8688,6.8649,6.8504,6.8541,6.8369,6.8417,6.8316,6.8304,6.825,6.8256,6.8249,6.806,6.8334,6.878,6.882,6.8243,6.8239,6.8235,0,6.93,6.9267,6.9329,6.9297,6.9139,6.9173,6.9109,6.9011,6.8993,6.8944,6.893,6.8888,6.8865,6.8835,6.8681,6.8571,6.8747,6.8563,6.8685,6.869,6.8733,6.8732,6.9183,6.8729,6.8728,6.8727,6.8727,0,6.9644,6.9722,6.949,6.9529,6.9608,6.9422,6.9506,6.942,6.9334,6.9351,6.9162,6.9182,6.8979,6.8976,6.8856,6.8912,6.8904,6.8844,6.8811,6.8861,6.8868,6.885,6.8827,6.8738,6.8735,6.8733,6.8732,0,7.0065,6.9913,6.9966,6.981,6.9773,6.9838,6.9704,6.9732,6.9623,6.9647,6.9642,6.9471,6.9457,6.9301,6.9254,6.9173,6.9275,6.9208,6.9305,6.9283,6.9414,6.9403,6.9868,6.9918,6.9435,6.944,6.9444,0,7.0294,7.0348,7.0197,7.0194,7.0138,7.0136,7.0115,6.9933,6.992,6.982,6.986,6.983,6.9797,6.9785,6.9656,6.9618,6.9547,6.9712,6.9541,6.9587,6.9547,6.9545,6.9548,6.975,6.9756,6.9761,6.9765,0,7.0717,7.0638,7.0615,7.0566,7.0546,7.0498,7.0439,7.0447,7.0246,7.0241,7.0223,7.0197,7.0146,7.0118,7.0056,6.9987,6.9843,6.982,6.9845,6.9896,6.9949,6.9919,6.9403,6.981,6.9806,6.9802,6.98,6.9798,7.1047,7.1083,7.0981,7.0961,7.0896,7.0844,7.0862,7.0753,7.0735,7.0678,7.0571,7.0569,7.0474,7.0375,7.0319,7.0313,7.0227,7.0266,7.0275,7.0287,7.0313,6.9951,7.0301,7.03,7.0298,7.0297,7.0296,0,7.1458,7.138,7.1363,7.1284,7.1268,7.1131,7.1056,7.1052,7.1052,7.0974,7.0944,7.0921,7.0892,7.0759,7.0714,7.0735,7.0667,7.0729,7.0726,7.0711,7.0393,7.0374,7.0785,7.0785,7.0784,7.0784,7.0784,7.0784,7.167,7.1722,7.1631,7.1648,7.1569,7.1564,7.1533,7.1483,7.1419,7.1402,7.1376,7.1289,7.1188,7.1133,7.1099,7.106,7.1052,7.1136,7.1076,7.0782,7.0735,7.069,7.067,7.1137,7.1137,7.1393,7.1396,7.1398]},{"header":{"parameterUnit":"m.s-1","parameterCategory":1,"la1":30.2991,"la2":30.254,"lo1":-89.0895,"lo2":-89.0444,"dy":0.0017,"dx":0.0017,"nx":28,"ny":28,"refTime":"2025-06-11T09:00:00:Z","depth":0,"parameterNumber":3,"parameterNumberName":"V-component_of_WINDS"},"data":[0,0,0,0,0,0,0,0,0,0,0,0,0,0,0,0,0,0,0,0,0,0,0,0,0,0,0,0,0,0,0,0,0,0,0,0,0,0,0,0,0,0,0,0,0,0,0,0,0,0,0,0,0,0,0,0,0,0,1.1794,1.1792,0,1.167,1.1669,1.1668,1.1603,1.1603,1.1603,1.1603,1.1478,1.1475,1.1472,0,0,0,0,0,0,0,0,0,0,0,0,0,1.1972,1.1969,1.1794,1.1792,1.1791,1.1671,1.1669,1.1667,1.1603,1.1603,1.1603,1.1603,1.1479,1.1475,1.1472,0,0,0,0,0,0,0,0,0,0,0,0,0,1.1877,1.1968,1.1794,1.1744,1.1739,1.1671,1.1669,1.1667,1.1603,1.1603,1.1603,1.1603,1.148,1.1476,1.1471,1.1444,0,0,1.1456,1.1454,0,0,0,0,0,0,0,0,1.1882,1.187,1.1753,1.1748,1.1741,1.1652,1.1686,1.1592,1.1603,1.1655,1.1603,1.1603,1.1536,1.1527,1.1504,1.1438,1.1433,1.1456,1.1453,1.1451,1.1449,0,0,0,0,0,0,0,1.1889,1.1875,1.1745,1.1752,1.1744,1.1727,1.1714,1.1668,1.1598,1.165,1.1645,1.1631,1.1533,1.1509,1.1501,1.1431,1.1456,1.1452,1.1449,1.1447,1.1331,1.1331,0,0,0,0,0,0,1.1903,1.1881,1.1749,1.1741,1.1813,1.1724,1.1709,1.1681,1.1598,1.1585,1.1632,1.1629,1.1517,1.1506,1.1496,1.1455,1.1451,1.1446,1.1443,1.1332,1.1331,1.1331,0,0,0,0,0,0,1.1907,1.1892,1.1754,1.181,1.1791,1.1721,1.169,1.1678,1.1654,1.1584,1.1571,1.162,1.1517,1.1503,1.1456,1.145,1.1444,1.144,1.1332,1.1331,1.1331,1.1377,0,0,0,0,0,0,1.1913,1.1894,1.1884,1.181,1.1788,1.1717,1.169,1.1676,1.1646,1.1641,1.157,1.1558,1.1515,1.1464,1.1451,1.1444,1.1436,1.1332,1.1332,1.1331,1.1375,1.1378,1.138,0,0,0,0,0,1.1919,1.1903,1.1884,1.1868,1.1774,1.1717,1.1704,1.1655,1.1646,1.1634,1.1588,1.156,1.1453,1.1459,1.1445,1.1436,1.1332,1.1332,1.1331,1.1374,1.1377,1.138,0,0,0,0,0,0,1.198,1.1893,1.187,1.183,1.1781,1.1706,1.169,1.1661,1.1615,1.1612,1.1554,1.1538,1.1496,1.1461,1.147,1.1403,1.1389,1.1386,1.1427,1.1429,1.1432,1.1441,1.1432,0,0,0,0,0,1.1988,1.195,1.1875,1.1846,1.1823,1.1761,1.1734,1.17,1.1648,1.1627,1.1578,1.1528,1.1483,1.1454,1.1409,1.137,1.1351,1.1356,1.1358,1.1361,1.1358,1.1331,1.1331,1.133,1.133,1.133,0,0,1.2006,1.1953,1.1933,1.1857,1.1815,1.1775,1.1744,1.1704,1.1673,1.1621,1.1573,1.1535,1.1475,1.1431,1.1409,1.1401,1.1354,1.136,1.1363,1.1359,1.133,1.133,1.1331,1.133,1.133,1.133,0,0,1.2016,1.1974,1.1943,1.1901,1.1837,1.1795,1.1788,1.1716,1.1688,1.1639,1.1598,1.156,1.1484,1.1442,1.1411,1.14,1.1371,1.1387,1.14,1.1373,1.1373,1.1373,1.1366,1.1365,1.1385,1.1385,1.1385,0,1.2046,1.1984,1.1931,1.1892,1.1858,1.1807,1.1774,1.1737,1.1662,1.1639,1.1631,1.1531,1.1488,1.1431,1.1428,1.1405,1.1393,1.1395,1.1378,1.1377,1.1376,1.1369,1.1367,1.1387,1.1387,1.1387,1.1387,0,1.2022,1.198,1.1962,1.1889,1.1854,1.1818,1.1758,1.1729,1.1697,1.1655,1.1603,1.1549,1.1489,1.1473,1.1443,1.1411,1.1407,1.1389,1.1374,1.1379,1.1371,1.1368,1.139,1.139,1.1389,1.1388,0,0,1.207,1.1965,1.1959,1.1923,1.1847,1.1813,1.1773,1.1714,1.1688,1.1638,1.1601,1.1536,1.1517,1.1481,1.1445,1.1423,1.1413,1.1406,1.1404,1.1407,1.137,1.1383,1.1381,1.1394,1.1393,1.1392,1.1374,0,1.2068,1.1995,1.1944,1.189,1.1847,1.1796,1.1761,1.171,1.1669,1.1627,1.1582,1.1535,1.1516,1.1493,1.1468,1.142,1.1405,1.1421,1.1358,1.1356,1.1373,1.1377,1.1391,1.1377,1.1371,1.137,1.137,0,1.2057,1.2005,1.1946,1.187,1.1851,1.1821,1.1759,1.172,1.166,1.1631,1.1589,1.1551,1.1505,1.1495,1.1429,1.1441,1.1412,1.1383,1.1382,1.1373,1.1363,1.1366,1.1372,1.1369,1.1365,1.1366,1.1366,0,1.2094,1.201,1.1962,1.1934,1.1845,1.1824,1.1786,1.1726,1.1692,1.1638,1.1615,1.1558,1.1526,1.1481,1.1428,1.1426,1.1366,1.1352,1.134,1.1341,1.1329,1.133,1.1328,1.1314,1.1314,1.1314,1.1314,0,1.2096,1.2062,1.1977,1.1948,1.1907,1.1847,1.1808,1.1765,1.1711,1.1671,1.1624,1.1588,1.1521,1.1475,1.1434,1.1383,1.137,1.1344,1.1333,1.1347,1.135,1.1327,1.1326,1.1313,1.1313,1.1313,1.1313,0,1.2131,1.2073,1.2018,1.1937,1.1916,1.1888,1.1819,1.1787,1.1743,1.1693,1.1678,1.1607,1.1551,1.1493,1.1419,1.139,1.134,1.1326,1.136,1.1354,1.1343,1.1344,1.1324,1.1317,1.131,1.131,1.1311,0,1.2136,1.2108,1.2022,1.1992,1.1954,1.1907,1.187,1.181,1.1774,1.17,1.1677,1.1617,1.1566,1.1479,1.142,1.1362,1.1344,1.1341,1.1335,1.1349,1.1341,1.1342,1.1338,1.1343,1.1344,1.1344,1.1344,0,1.2149,1.2121,1.2071,1.2009,1.1967,1.1916,1.1863,1.1841,1.177,1.1731,1.1673,1.1633,1.1554,1.1494,1.1427,1.1387,1.1353,1.1346,1.134,1.1353,1.1373,1.1359,1.1364,1.1347,1.1347,1.1347,1.1347,1.1346,1.2167,1.2138,1.2072,1.2017,1.197,1.192,1.1886,1.1835,1.1785,1.1715,1.1682,1.1622,1.1558,1.1465,1.1425,1.1376,1.1367,1.1358,1.1356,1.1354,1.1356,1.1382,1.1364,1.1364,1.1364,1.1364,1.1363,0,1.2176,1.213,1.208,1.2005,1.1961,1.1932,1.187,1.1835,1.1782,1.1725,1.1675,1.1605,1.1545,1.1481,1.1417,1.139,1.1372,1.1375,1.1376,1.1366,1.1369,1.138,1.139,1.139,1.139,1.139,1.139,1.139,1.2175,1.2123,1.2086,1.2008,1.1963,1.1903,1.187,1.1823,1.1776,1.17,1.165,1.1608,1.1546,1.1477,1.142,1.1402,1.138,1.1386,1.1364,1.1368,1.1366,1.1365,1.1374,1.1383,1.1383,1.1364,1.1364,1.1364]}]]